Location: Observatoire
(46.1952°N, 5.3391°E)
Time: 03:25:56
(UTC+01:00)

Altair - Pass Details

Date: 23 February 2026
Orbit: 1502 x 1682 km, 47.2° (Epoch: 13 March)

Event Time Altitude Azimuth Distance (km) Brightness Sun altitude
Rises 03:54:05 0° 229° (SW) 4,626 - -37.0°
Reaches altitude 10° 03:57:07 10° 226° (SW) 3,645 - -36.5°
Exits shadow 04:05:33 60° 163° (SSE) 1,693 7.5 -35.2°
Maximum altitude 04:06:04 61° 149° (SSE) 1,685 7.5 -35.1°
Drops below altitude 10° 04:15:11 10° 73° (ENE) 3,720 10.3 -33.7°
Sets 04:18:19 0° 70° (ENE) 4,727 11.2 -33.2°
